Volver al catálogo

COSMOS 2251 DEB

ActivoLEO
NORAD 39591·DEBRIS·🇷🇺 Russia

Lanzado Jun 16, 1993 desde Plesetsk Cosmodrome

Loading…

Próximos Pases (próximas 24 horas)

TLE

ActualizadoSource: Space-Track

Época: Sep 14, 2026, 05:58 UTC

1 39591U 93036BUW 26257.24915600  .00000601  00000-0  18880-3 0  9992
2 39591  74.0168  95.4100 0029474 144.9725 336.9731 14.42405019657484

Sigue COSMOS 2251 DEB en tiempo real con AllMySat

Download on the App Store